N27TH EDDF-EDDV

Flight info

Callsign N27TH
Flight time N/A
Altitude 22000
Route MARUN3W/25C MARUN Y153 WRB WRB1Z
Aircraft C25C/M-SDE2E3FGHRWXY/LB1

Departure

Time 2026-05-07 17:31
Airport Frankfurt Main Airport (EDDF)

Arrival

Time N/A
Airport Hannover Airport (EDDV)
Time Latitude Longitude Altitude Speed Heading
2026-05-07 17:02 50.04833 8.58836 367 ft 0 kts 339°
2026-05-07 17:22 50.04816 8.58846 368 ft 3 kts 339°
2026-05-07 17:23 50.04799 8.58856 365 ft 2 kts 339°
2026-05-07 17:23 50.04783 8.58865 366 ft 2 kts 339°
2026-05-07 17:23 50.04768 8.58875 362 ft 2 kts 339°
2026-05-07 17:23 50.04756 8.58882 366 ft 0 kts 339°
2026-05-07 17:26 50.04758 8.58878 362 ft 4 kts 309°
2026-05-07 17:26 50.04742 8.58821 363 ft 7 kts 236°
2026-05-07 17:26 50.04741 8.58819 363 ft 0 kts 236°
2026-05-07 17:29 50.04740 8.58817 363 ft 4 kts 236°
2026-05-07 17:30 50.04661 8.58762 363 ft 18 kts 186°
2026-05-07 17:30 50.04538 8.58658 365 ft 23 kts 219°
2026-05-07 17:30 50.04471 8.58517 365 ft 0 kts 250°
2026-05-07 17:31 50.04392 8.58193 365 ft 87 kts 249°
2026-05-07 17:31 50.04108 8.56899 762 ft 154 kts 251°
2026-05-07 17:31 50.03704 8.55012 1265 ft 215 kts 252°
2026-05-07 17:32 50.03183 8.52597 1709 ft 253 kts 253°
2026-05-07 17:32 50.02597 8.49900 2182 ft 271 kts 253°
2026-05-07 17:32 50.02035 8.47334 2079 ft 270 kts 253°
2026-05-07 17:32 50.01642 8.45570 1942 ft 253 kts 253°
2026-05-07 17:33 50.00795 8.42396 1931 ft 217 kts 236°
2026-05-07 17:33 49.99671 8.41230 2340 ft 182 kts 190°
2026-05-07 17:33 49.98466 8.41172 2325 ft 171 kts 181°
2026-05-07 17:33 49.97240 8.41182 1983 ft 180 kts 181°
2026-05-07 17:34 49.95958 8.41189 1703 ft 182 kts 181°
2026-05-07 17:34 49.94704 8.41224 2009 ft 180 kts 179°
2026-05-07 17:34 49.93471 8.41237 2376 ft 179 kts 197°
2026-05-07 17:34 49.93081 8.39867 2877 ft 153 kts 286°
2026-05-07 17:35 49.93389 8.38309 3165 ft 157 kts 289°
2026-05-07 17:35 49.93773 8.36772 3651 ft 147 kts 302°
2026-05-07 17:35 49.94401 8.35432 3732 ft 163 kts 305°
2026-05-07 17:35 49.95237 8.34332 4233 ft 159 kts 331°
2026-05-07 17:36 49.96383 8.33428 5038 ft 209 kts 330°
2026-05-07 17:36 49.97753 8.32267 6170 ft 245 kts 328°
2026-05-07 17:36 49.99478 8.30696 5386 ft 327 kts 327°
2026-05-07 17:36 50.01419 8.28849 6717 ft 339 kts 327°
2026-05-07 17:37 50.03487 8.27006 8428 ft 314 kts 334°